STARLINK-35996, 66800

Orbit data source: Space-Track

STARLINK-35996, 66800 is a payload satellite owned by SpaceX/Seattle (US) in LEO that was launched on Mon, 01 Dec 2025 UTC via an FALCON 9 launch vehicle from the Air Force Eastern Test Range (AFETR). Payload-class satellites include a variety of spacecraft equipped with specific instruments for various scientific and technological missions. These include communications satellites like Starlink; space stations such as the ISS; scientific satellites like the Hubble; Earth observation satellites from companies like Planet Labs, Umbra, and HawkEye 360; GPS; miniature CubeSats for education and research; and military/defense satellites.

Loading next visibility...
Identifier
66800, 2025-278K
Orbit
LEO
Country
Flag of USUS
Related business
Manufacturer
SpaceX/Seattle
Mission
Operational Commercial Communications
Bus & Motor
STARLINK V2MO, Unknown motor
Mass
575 kg wet, ~530 kg dry
Launch date (UTC)
2025-12-01 (7 months ago)
Launch vehicle
FALCON 9
Launch site
Air Force Eastern Test Range (AFETR)
Object type
Payload
Rocket body
Debris
Shape & HBR
Box + 2 Pan, 17.7 m
Radar Cross Section
36.964 m², Large (>1 m²)

Expand to show TLE details & history
Last TLE update: 14 hours ago

TLE from 14 hours ago
0 STARLINK-35996
1 66800U 25278K   26171.28532752  .00011225  00000-0  41670-3 0  9997
2 66800  43.0001 254.6281 0001910 270.0344  90.0288 15.27588869 30907
Epoch: 2026-06-20T06:50Z
TLE epoch observation values (Epoch: 2026-06-20T06:50:52.297Z)
Latitude
-0.00008°
Longitude
-116.59204°
Altitude
482.799 km
Speed
7.626 km/s
True Right ascension
16h 58m 30s
True Declination
0° 00' 00"
Sunlit
Object was in full shadow at epoch
Visualization orbit readout
Latitude
Unknown
Longitude
Unknown
Altitude
Unknown
Speed
Unknown
Apparent Right ascension
Unknown
Apparent Declination
Unknown
Sunlit
N/A
Visualization observer readout
Local Sidereal Time
07:16:45
Azimuth
Unknown
Elevation
Unknown
Doppler factor
Unknown
Orbital elements
Apogee altitude
486.279 km
Perigee altitude
483.657 km
Semi-major axis
6,863.105 km
Eccentricity
0.00019
Inclination
43.0001°
RAAN
254.6281°
Arg. of periapsis
270.0344°
True anomaly
90.05069°
Mean anomaly
90.0288°
Eccentric anomaly
90.03974°
Mean motion
3.81735 °/min
Orbital period
94.31 mins
BSTAR
0.0004167
Loading maneuver chart data...
Computing Atmospheric mass density...
Loading historical data...
Loading historical data...
Loading historical data...
Loading historical data...
Loading historical data...
Loading historical data...
Loading historical data...

Documentation

Showing up to 5 results
|